Regional Weather Roundup
Issued by NWS

Home | Current Version | Previous Version | Graphics & Text | Print | Product List | Glossary On
Versions: 1 2 3 4 5 6 7 8 9 10 11 12 13 14 15 16 17 18 19 20 21 22 23 24 25 26 27 28 29 30 31 32 33 34 35 36 37 38 39 40 41 42 43 44 45 46 47 48 49 50
000
ASUS43 KLSX 170907
RWRMO

WEATHER SUMMARY FOR MISSOURI
NATIONAL WEATHER SERVICE SPRINGFIELD MO
300 AM CST FRI NOV 17 2017

NOTE: "FAIR" INDICATES FEW OR NO CLOUDS BELOW 12,000 FEET WITH NO
       SIGNIFICANT WEATHER AND/OR OBSTRUCTIONS TO VISIBILITY.
       CURRENT SKY AND/OR WEATHER CONDITIONS ARE NOT AVAILABLE FOR
       CHILLICOTHE AND FARMINGTON.

MOZ001>031-035>038-043-044-053-054-171000-
...NORTHERN AND WESTERN MISSOURI...

CITY           SKY/WX    TMP DP  RH WIND       PRES   REMARKS
KANSAS CTY INT CLOUDY    52  40  63 SE14      29.87F
KANSAS C DTWN  CLOUDY    55  41  59 S9        29.89F
LEE`S SUMMIT   CLOUDY    51  39  63 S16       29.90F
ST JOSEPH      CLOUDY    51  37  58 S12       29.85F
CHILLICOTHE      N/A     44  32  62 SE13G18   29.95F
KIRKSVILLE     CLOUDY    38  33  82 SE13      29.98F WCI  30

$$
MOZ066>068-077>081-088>096-101>105-171000-
...SOUTHWEST MISSOURI...

CITY           SKY/WX    TMP DP  RH WIND       PRES   REMARKS
SPRINGFIELD    CLOUDY    51  43  74 SE17G29   29.99R
JOPLIN         CLOUDY    58  53  84 S10       29.95F
BRANSON        CLOUDY    48  43  81 SE7       30.04S

$$
MOZ032>034-039>042-045>050-055>058-069>072-171000-
...CENTRAL MISSOURI...

CITY           SKY/WX    TMP DP  RH WIND       PRES   REMARKS
COLUMBIA       CLOUDY    42  34  73 SE14      30.01F
JEFFERSON CITY CLOUDY    43  34  70 SE13      30.03F
ROLLA          CLOUDY    42  35  76 SE12      30.05S
SEDALIA        CLOUDY    49  38  65 SE12      29.98F
WHITEMAN AFB   MOCLDY    50  37  61 S12G20    29.90F
WARRENSBURG    CLOUDY    50  37  62 SE10      29.94F
OSAGE BEACH    CLOUDY    48  38  68 S9        30.02F

$$
MOZ051-052-059>065-171000-
...EAST CENTRAL MISSOURI...

CITY           SKY/WX    TMP DP  RH WIND       PRES   REMARKS
ST LOUIS INTL  PTCLDY    32  31  96 E12       30.12F WCI  23
SPIRIT OF STL  MOCLDY    34  32  92 VRB3      30.12F
ST CHARLES     PTCLDY    31  29  92 E9        30.12F FOG     WCI  23

$$
MOZ072>076-082>087-097>100-106>115-171000-
...SOUTH CENTRAL AND SOUTHEAST MISSOURI...

CITY           SKY/WX    TMP DP  RH WIND       PRES   REMARKS
CAPE GIRARDEAU CLOUDY    31  29  92 E6        30.17F FOG     WCI  25
FARMINGTON     CLOUDY    30  29  96 SE6       30.12F FOG     WCI  24
POPLAR BLUFF   CLOUDY    34  33  96 NE5       30.15F FOG     WCI  30
WEST PLAINS    CLOUDY    43  37  79 SE7       30.09S

$$



USA.gov is the U.S. government's official web portal to all federal, state and local government web resources and services.